Main page


Airports :

Sarakhs, Iran

Sarakhs Airport

latitude: 36-30-04N, longitude: 061-03-54E, elevation: 288 m

Current weather observation

The report was made 17 minutes ago, at 06:00 UTC
Wind 14 kt from the South
Temperature 18°C
Humidity 64%
Pressure 1013 hPa

METAR: OIMC 200600Z AUTO 18014KT //// // ////// 18/11 Q1013

Time: 09:47 (06:17 UTC)

TAF: missing

Weather observations and forecasts of more than 4000 airports (METAR and TAF reports).

The available stations are represented by yellow and red dots on the map.

Hover mouse over dot to see the name of the station.

Then click to see weather observations and forecasts.

To change the map : click on the green buttons with a black cross to zoom in, on the green button with a dash to zoom out, or on the green arrows for adjacent maps.